ORBCOMM FM110

Last updated on Tue Sep 22 2026 00:03:23 GMT+0000 (Coordinated Universal Time)

1 41182U 15081D 26264.52794747 .00000261 00000+0 91275-4 0 9992 2 41182 47.0012 265.8704 0002453 184.2421 175.8445 14.58994097571698
UTC large
Height (km)
Speed (km/s)
/
Latitude / Longitude
Inclination (degrees)
Orbital Period (minutes)
Azimuth
Elevation
Range (km)
Doppler Factor

Next 0 passes for location: London (51.5072 / 0.1276)

No passes found over London.
ORBCOMM FM110